Find STARLINK-37984

NORAD ID: 799501221 Int'l Des: 2026-161S Constellation: starlink operational

Aktuelle Ansicht

3D-Globus wird geladen...

About STARLINK-37984

STARLINK-37984 (NORAD 799501221) is a starlink constellation satellite launched Jul 14, 2026

Über STARLINK-37984

Beschreibung wird geladen...

Nächste Überflüge

Passes for default location (London). Set your location on the main map for personalized predictions.

Höhenverlauf

Loading altitude history...

Zweizeiliger Elementsatz

1 99999C 2026161S 26195.64076389 .03367600 00000-0 310530-3 0 1957
2 99999 53.1636 325.5583 0009969 283.6501 153.6969 16.09839801 15
Epoch: 14. Juli 2026 • Age: 8 hours

Aktueller Status

Höhe 252.8 km
Apogäum / Perigäum N/A
Geschwindigkeit 7.76 km/s
Subsatellitenpunkt -51.70°S, 34.7°W
Startdatum 14. Juli 2026
Alter N/A
Typ internet

Most Searched